Mildenhall RAF, United Kingdom

4:13 PM GMT on February 07, 2016 (GMT +0000)
Mildenhall Air Base

Weather History for EGUN - October, 2011

Change the Weather History Date:

Wednesday, October 12, 2011

  Actual Average (EGSC) Record (EGSC)
Temperature  
Mean Temperature 62 °F -  
Max Temperature 67 °F 58 °F 71 °F (2001)
Min Temperature 57 °F 47 °F 39 °F (1999)
Degree Days  
Heating Degree Days 2    
Growing Degree Days 12 (Base 50)    
Moisture  
Dew Point 57 °F    
Average Humidity 89    
Maximum Humidity 100    
Minimum Humidity 64    
Precipitation  
Precipitation 0.00 in - - ()
Sea Level Pressure  
Sea Level Pressure 30.08 in    
Wind  
Wind Speed 8 mph ()    
Max Wind Speed 15 mph    
Max Gust Speed 20 mph    
Visibility 6.2 miles    
Events Rain    
Averages and records for this station are not official NWS values.
T = Trace of Precipitation, MM = Missing Value Source: Averaged Metar Reports

Daily Weather History Graph

Daily Weather History Graph

Search for Another Location

Airport or City:

Trip Planner

Search our weather history database for the weather conditions in past years. The results will help you decide how hot, cold, wet, or windy it might be!

Date:

Astronomy

Oct. 12, 2011 Rise Set
Actual Time 7:17 AM BST 6:11 PM BST
Civil Twilight 6:43 AM BST 6:45 PM BST
Nautical Twilight 6:03 AM BST 7:24 PM BST
Astronomical Twilight 5:23 AM BST 8:04 PM BST
Moon 5:51 PM BST (10/12) 7:49 AM BST (10/12)
Length of Visible Light 12h 02m
Length of Day
10h 53m
Full, 100% of the Moon is Illuminated
Oct 12
Full
Oct 20
Last Quarter
Oct 26
New
Nov 2
First Quarter
Nov 10
Full

Hourly Weather History & Observations

Time (BST) Temp. Dew Point Humidity Pressure Visibility Wind Dir Wind Speed Gust Speed Precip Events Conditions
12:55 AM 60.8 °F 56.3 °F 85% 30.04 in 6.2 mi West 12.7 mph - N/A   Overcast
1:55 AM 60.3 °F 56.1 °F 86% 30.04 in 6.2 mi WSW 10.4 mph - N/A   Overcast
2:45 AM 59.0 °F 55.4 °F 88% 30.03 in 6.2 mi WSW 9.2 mph - N/A   Overcast
2:55 AM 59.7 °F 55.2 °F 85% 30.03 in 6.2 mi WSW 10.4 mph - N/A   Overcast
3:19 AM 59.0 °F 55.4 °F 88% 30.03 in 6.2 mi WSW 10.4 mph - N/A   Overcast
3:55 AM 59.7 °F 55.2 °F 85% 30.03 in 6.2 mi West 8.1 mph - N/A   Overcast
4:55 AM 59.5 °F 55.4 °F 86% 30.02 in 6.2 mi West 8.1 mph - N/A   Overcast
5:09 AM 59.0 °F 55.4 °F 88% 30.02 in 6.2 mi West 9.2 mph - N/A   Overcast
5:30 AM 59.0 °F 55.4 °F 88% 30.02 in 6.2 mi West 11.5 mph - N/A   Overcast
6:09 AM 59.0 °F 55.4 °F 88% 30.02 in 6.2 mi West 10.4 mph - N/A   Overcast
6:26 AM 59.0 °F 57.2 °F 94% 30.02 in 6.2 mi West 10.4 mph - N/A   Overcast
6:55 AM 58.1 °F 56.7 °F 95% 30.02 in 6.2 mi WSW 9.2 mph - 0.00 in   Overcast
7:03 AM 57.2 °F 57.2 °F 100% 30.02 in 6.2 mi WSW 9.2 mph - N/A   Overcast
7:10 AM 57.2 °F 57.2 °F 100% 30.02 in 6.2 mi West 9.2 mph - N/A   Overcast
7:16 AM 57.2 °F 55.4 °F 94% 30.02 in 6.2 mi WSW 8.1 mph - N/A   Overcast
7:32 AM 57.2 °F 57.2 °F 100% 30.03 in 6.2 mi WSW 8.1 mph - N/A   Overcast
7:55 AM 58.1 °F 56.1 °F 93% 30.03 in 6.2 mi WSW 9.2 mph - N/A   Overcast
8:46 AM 59.0 °F 55.4 °F 88% 30.04 in 6.2 mi WSW 9.2 mph - N/A   Overcast
8:55 AM 59.2 °F 55.9 °F 89% 30.04 in 6.2 mi WSW 9.2 mph - N/A   Overcast
9:55 AM 60.4 °F 55.2 °F 83% 30.06 in 6.2 mi WSW 11.5 mph - N/A   Overcast
10:05 AM 60.8 °F 55.4 °F 82% 30.05 in 6.2 mi WSW 11.5 mph - N/A   Overcast
10:33 AM 60.8 °F 55.4 °F 82% 30.05 in 6.2 mi WSW 11.5 mph - N/A   Overcast
10:55 AM 62.1 °F 55.0 °F 78% 30.05 in 6.2 mi West 12.7 mph - N/A   Overcast
11:14 AM 64.4 °F 55.4 °F 73% 30.05 in 6.2 mi West 13.8 mph - N/A   Overcast
12:55 PM 66.0 °F 54.7 °F 67% 30.05 in 6.2 mi West 10.4 mph - N/A   Overcast
1:31 PM 66.2 °F 53.6 °F 64% 30.04 in 6.2 mi West 10.4 mph - N/A   Overcast
1:55 PM 66.0 °F 54.5 °F 66% 30.05 in 6.2 mi West 9.2 mph - N/A   Overcast
2:16 PM 68.0 °F 55.4 °F 64% 30.04 in 6.2 mi West 12.7 mph - N/A   Overcast
2:21 PM 68.0 °F 55.4 °F 64% 30.04 in 6.2 mi West 11.5 mph - N/A Rain Light Rain
2:30 PM 64.4 °F 57.2 °F 77% 30.05 in 6.2 mi West 13.8 mph - N/A Rain Light Rain
2:33 PM 64.4 °F 55.4 °F 73% 30.05 in 6.2 mi WNW 12.7 mph - N/A   Overcast
2:36 PM 64.4 °F 55.4 °F 73% 30.05 in 6.2 mi WNW 9.2 mph - N/A   Overcast
3:03 PM 66.2 °F 57.2 °F 73% 30.06 in 6.2 mi NW 10.4 mph - N/A   Overcast
3:08 PM 64.4 °F 57.2 °F 77% 30.06 in 6.2 mi WNW 15.0 mph 19.6 mph N/A Rain Light Rain
3:19 PM 62.6 °F 59.0 °F 88% 30.06 in 6.2 mi WNW 12.7 mph - N/A Rain Light Rain
3:30 PM 60.8 °F 59.0 °F 94% 30.07 in 6.2 mi NW 8.1 mph - N/A Rain Light Rain
3:36 PM 60.8 °F 57.2 °F 88% 30.07 in 6.2 mi NW 6.9 mph - N/A   Overcast
3:40 PM 62.6 °F 59.0 °F 88% 30.07 in 6.2 mi NW 5.8 mph - N/A   Overcast
3:46 PM 62.6 °F 59.0 °F 88% 30.07 in 6.2 mi WNW 6.9 mph - N/A   Overcast
3:55 PM 62.1 °F 58.5 °F 88% 30.07 in 6.2 mi WNW 8.1 mph - 0.00 in   Overcast
4:26 PM 60.8 °F 59.0 °F 94% 30.08 in 6.2 mi NNW 3.5 mph - N/A   Overcast
4:31 PM 60.8 °F 59.0 °F 94% 30.08 in 6.2 mi Variable 4.6 mph - N/A   Overcast
4:32 PM 60.8 °F 59.0 °F 94% 30.08 in 6.2 mi North 4.6 mph - N/A Rain Light Rain
4:40 PM 60.8 °F 59.0 °F 94% 30.08 in 6.2 mi NNW 4.6 mph - N/A Rain Light Rain
4:42 PM 60.8 °F 59.0 °F 94% 30.08 in 6.2 mi NNW 4.6 mph - N/A Rain Light Rain
4:45 PM 60.8 °F 59.0 °F 94% 30.08 in 6.2 mi NW 4.6 mph - N/A Rain Light Rain
4:49 PM 60.8 °F 59.0 °F 94% 30.08 in 6.2 mi WNW 3.5 mph - N/A Rain Light Rain
4:55 PM 61.0 °F 59.4 °F 94% 30.08 in 6.2 mi WNW 3.5 mph - 0.00 in Rain Light Rain
4:58 PM 60.8 °F 59.0 °F 94% 30.09 in 6.2 mi West 5.8 mph - N/A   Overcast
5:11 PM 60.8 °F 59.0 °F 94% 30.08 in 6.2 mi West 5.8 mph - N/A   Overcast
5:17 PM 60.8 °F 59.0 °F 94% 30.08 in 6.2 mi West 5.8 mph - N/A   Overcast
5:24 PM 60.8 °F 59.0 °F 94% 30.09 in 6.2 mi West 4.6 mph - N/A   Overcast
6:14 PM 60.8 °F 59.0 °F 94% 30.10 in 6.2 mi SSW 4.6 mph - N/A   Overcast
6:19 PM 60.8 °F 59.0 °F 94% 30.10 in 6.2 mi SW 4.6 mph - N/A   Overcast
6:29 PM 60.8 °F 59.0 °F 94% 30.10 in 6.2 mi SW 5.8 mph - N/A   Overcast
6:44 PM 60.8 °F 59.0 °F 94% 30.11 in 6.2 mi SW 5.8 mph - N/A   Overcast
6:55 PM 60.3 °F 59.7 °F 98% 30.11 in 6.2 mi Variable 3.5 mph - N/A   Overcast
7:05 PM 60.8 °F 59.0 °F 94% 30.12 in 6.2 mi NNW 8.1 mph - N/A   Overcast
7:24 PM 60.8 °F 59.0 °F 94% 30.13 in 6.2 mi North 5.8 mph - N/A Rain Light Rain
7:33 PM 60.8 °F 59.0 °F 94% 30.13 in 6.2 mi NNW 4.6 mph - N/A   Overcast
7:38 PM 60.8 °F 59.0 °F 94% 30.13 in 6.2 mi NNW 4.6 mph - N/A Rain Light Rain
8:02 PM 60.8 °F 59.0 °F 94% 30.14 in 6.2 mi NNW 3.5 mph - N/A Rain Light Rain
8:18 PM 60.8 °F 59.0 °F 94% 30.14 in 6.2 mi Calm Calm - N/A Rain Light Rain
8:22 PM 60.8 °F 59.0 °F 94% 30.14 in 6.2 mi NNW 3.5 mph - N/A   Overcast
8:55 PM 59.9 °F 59.0 °F 97% 30.15 in 6.2 mi NNW 4.6 mph - 0.00 in   Overcast
8:58 PM 59.0 °F 59.0 °F 100% 30.15 in 6.2 mi NW 4.6 mph - N/A   Overcast
9:37 PM 59.0 °F 57.2 °F 94% 30.16 in 6.2 mi North 5.8 mph - N/A   Overcast
9:55 PM 58.8 °F 57.7 °F 96% 30.17 in 6.2 mi North 4.6 mph - N/A   Overcast
10:35 PM 57.2 °F 57.2 °F 100% 30.18 in 6.2 mi NNW 4.6 mph - N/A   Overcast
10:40 PM 57.2 °F 57.2 °F 100% 30.18 in 6.2 mi NW 5.8 mph - N/A   Overcast
10:55 PM 57.6 °F 56.8 °F 97% 30.19 in 6.2 mi NNW 5.8 mph - N/A   Overcast
11:12 PM 57.2 °F 57.2 °F 100% 30.19 in 6.2 mi North 5.8 mph - N/A   Overcast
11:38 PM 57.2 °F 57.2 °F 100% 30.20 in 6.2 mi North 4.6 mph - N/A   Overcast
11:55 PM 57.0 °F 56.5 °F 98% 30.20 in 6.2 mi NNE 3.5 mph - N/A   Overcast